CW5183 Weather Reports


time (UTC)temp
F
wind
direction
speed
knots
gust
knots
rain 1hr
in
rain 24hr
in
rain mn
in
humidity
%
barometer
mb
20260509123004 54 213 3.5 8.7 0.00 0.00 0.00 86 1005.0
20260509121503 54 200 5.2 10.4 0.00 0.00 0.00 87 1005.1
20260509120002 54 220 3.5 7.8 0.00 0.00 0.00 88 1005.0
20260509114501 53 183 3.5 10.4 0.00 0.00 0.00 89 1004.9
20260509113001 53 215 5.2 10.4 0.00 0.00 0.00 89 1005.0
20260509111605 53 215 5.2 10.4 0.00 0.00 0.00 89 1004.5
20260509110106 53 200 4.3 10.4 0.00 0.00 0.00 89 1004.5
20260509104606 53 190 4.3 11.3 0.00 0.00 0.00 89 1004.4
20260509103054 54 202 4.3 9.6 0.00 0.00 0.00 88 1004.5
20260509101554 53 190 3.5 7.8 0.00 0.00 0.00 88 1004.6
20260509100053 53 214 2.6 6.1 0.00 0.00 0.00 88 1004.8
20260509094549 54 234 3.5 7.8 0.00 0.00 0.00 88 1005.0
20260509093049 54 202 4.3 9.6 0.00 0.00 0.00 87 1005.1
20260509091547 54 230 4.3 10.4 0.00 0.00 0.00 87 1005.1
20260509090051 54 227 3.5 8.7 0.00 0.00 0.00 87 1005.2
20260509084546 54 192 4.3 8.7 0.00 0.00 0.00 86 1005.5
20260509083046 54 227 2.6 7.0 0.00 0.00 0.00 86 1005.4
20260509081544 54 207 4.3 8.7 0.00 0.00 0.00 85 1005.1
20260509080037 55 196 2.6 8.7 0.00 0.00 0.00 85 1005.1
20260509074535 55 231 3.5 8.7 0.00 0.00 0.00 84 1005.6
20260509073032 55 238 4.3 9.6 0.00 0.00 0.00 84 1005.6
20260509071529 55 217 4.3 8.7 0.00 0.00 0.00 83 1005.9
20260509070027 55 174 3.5 7.0 0.00 0.00 0.00 83 1006.1
20260509064525 56 225 2.6 8.7 0.00 0.00 0.00 83 1006.2
20260509063022 56 237 2.6 7.8 0.00 0.00 0.00 83 1006.2
20260509061520 56 218 2.6 6.1 0.00 0.00 0.00 83 1006.4
20260509060018 56 202 3.5 8.7 0.00 0.00 0.00 83 1006.7
20260509054524 57 217 3.5 9.6 0.00 0.00 0.00 82 1006.7
20260509053028 57 227 3.5 11.3 0.00 0.00 0.00 82 1006.7
20260509051516 57 192 3.5 10.4 0.00 0.00 0.00 81 1006.6
20260509050022 57 196 4.3 8.7 0.00 0.00 0.00 80 1006.7
20260509044511 58 203 1.7 11.3 0.00 0.00 0.00 78 1006.8
20260509043006 58 224 4.3 11.3 0.00 0.00 0.00 77 1006.7
20260509041506 58 199 5.2 9.6 0.00 0.00 0.00 75 1006.7
20260509040005 58 188 2.6 7.8 0.00 0.00 0.00 74 1006.8
20260509034503 58 197 4.3 9.6 0.00 0.00 0.00 74 1006.8
20260509033003 58 195 4.3 9.6 0.00 0.00 0.00 73 1006.9
20260509031504 58 188 3.5 7.0 0.00 0.00 0.00 73 1007.0
20260509030006 58 167 3.5 8.7 0.00 0.00 0.00 72 1007.0
20260509024501 57 148 3.5 6.1 0.00 0.00 0.00 73 1007.2
20260509023002 56 105 0.0 2.6 0.00 0.00 0.00 72 1007.3
20260509021502 56 105 0.0 1.7 0.00 0.00 0.00 71 1007.3
20260509020059 56 105 0.0 2.6 0.00 0.00 0.00 71 1007.3
20260509014610 56 105 0.0 2.6 0.00 0.00 0.00 71 1007.2
20260509013111 56 105 0.9 3.5 0.00 0.00 0.00 70 1007.3
20260509011606 56 115 0.9 3.5 0.00 0.00 0.00 69 1007.1
20260509010058 56 114 1.7 3.5 0.00 0.00 0.00 68 1007.2
20260509004606 57 97 1.7 5.2 0.00 0.00 0.00 65 1007.2
20260509003128 56 113 0.9 6.1 0.00 0.00 0.00 63 1007.2
20260509001605 56 113 4.3 7.8 0.00 0.00 0.00 61 1007.3
20260509000111 56 122 4.3 7.8 0.00 0.00 0.00 60 1007.4
20260508234554 57 123 3.5 7.8 0.00 0.00 0.00 59 1007.5
20260508233054 57 127 5.2 9.6 0.00 0.00 0.00 58 1007.6
20260508231554 58 119 3.5 9.6 0.00 0.00 0.00 60 1007.7
20260508230054 58 120 5.2 9.6 0.00 0.00 0.00 59 1007.8
20260508224602 58 75 5.2 13.0 0.00 0.01 0.00 58 1007.9
20260508223052 58 159 3.5 12.2 0.00 0.01 0.00 56 1007.9
20260508221551 59 107 4.3 9.6 0.00 0.01 0.00 56 1007.9
20260508220053 58 124 6.1 11.3 0.00 0.01 0.00 59 1008.0
20260508214553 59 132 4.3 11.3 0.00 0.02 0.00 59 1008.2
20260508213049 59 105 2.6 7.8 0.00 0.02 0.00 62 1008.3
20260508211549 58 113 4.3 10.4 0.00 0.02 0.00 68 1008.3
20260508210048 57 109 5.2 12.2 0.00 0.02 0.00 68 1008.3
20260508204548 59 119 4.3 9.6 0.00 0.02 0.00 66 1008.4
20260508203051 57 97 5.2 7.8 0.00 0.02 0.00 68 1008.7
20260508201547 59 75 4.3 9.6 0.00 0.02 0.00 63 1008.9
20260508200056 60 68 4.3 8.7 0.00 0.02 0.00 60 1009.1
20260508194545 59 100 7.0 11.3 0.00 0.02 0.00 58 1009.3
20260508193054 59 117 1.7 9.6 0.00 0.02 0.00 60 1009.5
20260508191543 60 108 6.1 10.4 0.00 0.02 0.00 55 1009.6
20260508190046 61 115 3.5 8.7 0.00 0.02 0.00 58 1009.7
20260508184548 59 76 5.2 9.6 0.00 0.02 0.00 56 1010.0
20260508183049 59 126 6.1 10.4 0.00 0.02 0.00 55 1010.2
20260508181542 60 101 5.2 10.4 0.00 0.02 0.00 53 1010.3
20260508180038 60 66 1.7 7.8 0.00 0.02 0.00 57 1010.6
20260508174556 60 99 3.5 8.7 0.00 0.02 0.00 56 1010.7
20260508173035 59 109 4.3 9.6 0.00 0.02 0.00 57 1011.0
20260508171536 59 107 6.1 9.6 0.00 0.02 0.00 57 1011.2
20260508170036 59 98 4.3 9.6 0.00 0.02 0.00 58 1011.4
20260508164534 58 101 6.1 11.3 0.00 0.02 0.00 58 1011.7
20260508163050 59 83 2.6 8.7 0.00 0.02 0.00 64 1011.9
20260508161530 58 103 5.2 8.7 0.00 0.02 0.00 62 1011.9
20260508160030 59 110 4.3 8.7 0.00 0.02 0.00 65 1012.1
20260508154529 58 100 4.3 8.7 0.00 0.02 0.00 63 1012.2
20260508153031 59 119 3.5 7.0 0.00 0.02 0.00 63 1012.3
20260508151533 59 85 3.5 6.1 0.00 0.02 0.00 64 1012.3
20260508150028 59 52 1.7 4.3 0.00 0.02 0.00 67 1012.3
20260508144522 58 129 0.0 3.5 0.00 0.02 0.00 72 1012.3
20260508143018 56 128 0.9 4.3 0.00 0.02 0.00 73 1012.6
20260508141515 54 134 0.0 2.6 0.00 0.02 0.00 75 1012.8
20260508140013 53 103 0.0 3.5 0.00 0.02 0.00 79 1012.5
20260508134509 52 108 0.0 5.2 0.00 0.02 0.00 81 1012.5
20260508133009 52 99 2.6 5.2 0.00 0.02 0.00 80 1012.6
20260508131507 51 155 0.9 4.3 0.00 0.02 0.00 81 1012.5
20260508130006 50 170 1.7 3.5 0.00 0.02 0.00 82 1012.8
20260508124506 49 273 0.0 2.6 0.00 0.02 0.00 86 1012.8